Location: Cabrera Baja
(40.4089°N, 4.3354°W)
Time: 01:19:08
(UTC+00:00)

H-2A R/B - Visible Passes

Search period start: 24 October 2020 00:00
Search period end: 03 November 2020 00:00
Orbit: 577 x 655 km, 98.5° (Epoch: 23 October)

Date Brightness Start Highest point End Pass type
(mag) Time Alt. Az. Time Alt. Az. Time Alt. Az.
24 Oct 4.6 03:56:32 10° SSE 03:57:08 14° SE 03:57:08 14° SE visible
25 Oct 4.4 04:12:31 10° SSE 04:13:21 15° SSE 04:13:21 15° SSE visible
26 Oct 4.2 04:28:39 10° S 04:29:35 16° S 04:29:35 16° S visible
26 Oct 3.7 17:52:03 10° N 17:55:52 36° WNW 17:59:37 10° SW visible
27 Oct 4.2 04:44:57 10° S 04:45:49 15° S 04:45:49 15° S visible
27 Oct 4.4 18:08:31 10° NNW 18:11:53 24° WNW 18:15:12 10° WSW visible
28 Oct 4.3 05:01:29 10° SSW 05:02:03 13° SSW 05:02:03 13° SSW visible
28 Oct 4.8 18:25:10 10° NNW 18:27:51 17° WNW 18:30:30 10° WSW visible
29 Oct 4.4 05:18:16 10° SW 05:18:17 10° SW 05:18:17 10° SW visible
29 Oct 5.1 18:42:22 10° NW 18:43:47 12° WNW 18:45:12 10° W visible
30 Oct 4.9 03:57:26 10° SSE 03:57:26 10° SSE 03:57:26 10° SSE visible
31 Oct 4.7 04:13:23 10° SSE 04:13:40 12° SSE 04:13:40 12° SSE visible
31 Oct 2.7 17:36:31 10° N 17:40:34 56° WNW 17:44:33 10° SSW visible
01 Nov 4.5 04:29:30 10° S 04:29:55 12° S 04:29:55 12° S visible
01 Nov 3.6 17:52:48 10° N 17:56:36 36° WNW 18:00:21 10° SW visible
02 Nov 4.5 04:45:48 10° S 04:46:09 12° S 04:46:09 12° S visible
02 Nov 4.3 18:09:14 10° NNW 18:12:36 25° WNW 18:15:57 10° WSW visible
